RYR3BU EGNM-EPKK

Flight info

Callsign RYR3BU
Flight time 2h 5m
Altitude 39000
Route LAMIX L603 LAMSO DCT POVEL L986 MAG DCT LASIS T714 MOFKE
Aircraft B38M/M-SDE1FGHILORVWXY/HB1

Departure

Time 2026-05-01 11:25
Airport Leeds Bradford Airport (EGNM)

Arrival

Time 2026-05-01 13:31
Airport Kraków John Paul II International Airport (EPKK)
Time Latitude Longitude Altitude Speed Heading
2026-05-01 11:04 53.86865 -1.65413 661 ft 0 kts
2026-05-01 11:15 53.86840 -1.65414 662 ft 9 kts 360°
2026-05-01 11:15 53.86821 -1.65409 662 ft 0 kts 304°
2026-05-01 11:15 53.86817 -1.65400 661 ft 0 kts 282°
2026-05-01 11:16 53.86816 -1.65393 661 ft 0 kts 268°
2026-05-01 11:19 53.86815 -1.65410 662 ft 5 kts 265°
2026-05-01 11:19 53.86815 -1.65514 665 ft 13 kts 270°
2026-05-01 11:19 53.86816 -1.65710 672 ft 19 kts 269°
2026-05-01 11:19 53.86813 -1.65919 677 ft 16 kts 271°
2026-05-01 11:20 53.86821 -1.66084 684 ft 13 kts 290°
2026-05-01 11:20 53.86885 -1.66194 681 ft 15 kts 316°
2026-05-01 11:20 53.86952 -1.66311 681 ft 8 kts 303°
2026-05-01 11:20 53.86958 -1.66327 684 ft 0 kts 299°
2026-05-01 11:21 53.86961 -1.66337 682 ft 2 kts 299°
2026-05-01 11:21 53.86975 -1.66380 683 ft 8 kts 299°
2026-05-01 11:21 53.86993 -1.66493 683 ft 13 kts 254°
2026-05-01 11:21 53.86984 -1.66654 677 ft 16 kts 304°
2026-05-01 11:22 53.87065 -1.66781 680 ft 16 kts 318°
2026-05-01 11:22 53.87155 -1.66915 683 ft 17 kts 319°
2026-05-01 11:22 53.87256 -1.66995 689 ft 17 kts
2026-05-01 11:22 53.87374 -1.67000 692 ft 17 kts 340°
2026-05-01 11:23 53.87399 -1.67096 689 ft 0 kts 249°
2026-05-01 11:23 53.87399 -1.67098 689 ft 1 kts 249°
2026-05-01 11:23 53.87389 -1.67128 690 ft 5 kts 226°
2026-05-01 11:24 53.87354 -1.67190 688 ft 9 kts 224°
2026-05-01 11:24 53.87333 -1.67194 687 ft 2 kts 144°
2026-05-01 11:24 53.87325 -1.67182 690 ft 6 kts 138°
2026-05-01 11:25 53.87101 -1.66840 683 ft 83 kts 137°
2026-05-01 11:25 53.85699 -1.64671 1198 ft 158 kts 136°
2026-05-01 11:25 53.84901 -1.63366 2088 ft 160 kts 135°
2026-05-01 11:26 53.84031 -1.62045 2783 ft 177 kts 139°
2026-05-01 11:26 53.82424 -1.58135 3864 ft 229 kts 118°
2026-05-01 11:26 53.81579 -1.55864 4770 ft 235 kts 138°
2026-05-01 11:27 53.80203 -1.54235 5575 ft 245 kts 147°
2026-05-01 11:27 53.78784 -1.52606 6615 ft 250 kts 146°
2026-05-01 11:27 53.77326 -1.50911 7521 ft 254 kts 146°
2026-05-01 11:27 53.75864 -1.49197 8531 ft 257 kts 146°
2026-05-01 11:28 53.74394 -1.47489 9495 ft 262 kts 146°
2026-05-01 11:28 53.72877 -1.45733 10459 ft 266 kts 146°
2026-05-01 11:28 53.71343 -1.43958 11311 ft 270 kts 146°
2026-05-01 11:29 53.68019 -1.40123 12272 ft 309 kts 146°
2026-05-01 11:29 53.66199 -1.38028 12687 ft 327 kts 146°
2026-05-01 11:29 53.62342 -1.33593 14155 ft 341 kts 146°
2026-05-01 11:30 53.60361 -1.31318 14867 ft 346 kts 146°
2026-05-01 11:30 53.58363 -1.29029 15597 ft 350 kts 147°
2026-05-01 11:30 53.56359 -1.26736 16313 ft 355 kts 147°
2026-05-01 11:30 53.54309 -1.24391 17001 ft 359 kts 147°
2026-05-01 11:31 53.52227 -1.22013 17719 ft 363 kts 147°
2026-05-01 11:31 53.50130 -1.19622 18409 ft 367 kts 147°
2026-05-01 11:31 53.48008 -1.17203 19000 ft 370 kts 147°
2026-05-01 11:31 53.45930 -1.14608 19594 ft 375 kts 138°
2026-05-01 11:32 53.44337 -1.11122 20210 ft 381 kts 121°
2026-05-01 11:32 53.43095 -1.07160 20780 ft 385 kts 121°
2026-05-01 11:32 53.41815 -1.03193 21356 ft 389 kts 121°
2026-05-01 11:32 53.40539 -0.99184 21955 ft 392 kts 121°
2026-05-01 11:33 53.39259 -0.95123 22547 ft 395 kts 120°
2026-05-01 11:33 53.37973 -0.91026 23138 ft 399 kts 120°
2026-05-01 11:33 53.36680 -0.86902 23717 ft 402 kts 120°
2026-05-01 11:33 53.35372 -0.82731 24221 ft 405 kts 120°
2026-05-01 11:34 53.34055 -0.78539 24728 ft 408 kts 120°
2026-05-01 11:34 53.32736 -0.74349 25238 ft 411 kts 121°
2026-05-01 11:34 53.31415 -0.70157 25719 ft 414 kts 120°
2026-05-01 11:34 53.30273 -0.65726 26198 ft 420 kts 110°
2026-05-01 11:35 53.29503 -0.61007 26707 ft 423 kts 109°
2026-05-01 11:35 53.28613 -0.56296 27150 ft 425 kts 111°
2026-05-01 11:35 53.27695 -0.51589 27621 ft 427 kts 111°
2026-05-01 11:35 53.26783 -0.46843 28068 ft 430 kts 111°
2026-05-01 11:36 53.25872 -0.42064 28516 ft 433 kts 111°
2026-05-01 11:36 53.25264 -0.38874 28812 ft 435 kts 111°
2026-05-01 11:36 53.24345 -0.34047 29240 ft 438 kts 111°
2026-05-01 11:36 53.23417 -0.29185 29659 ft 440 kts 111°
2026-05-01 11:37 53.22178 -0.22711 30209 ft 444 kts 111°
2026-05-01 11:37 53.21234 -0.17795 30549 ft 447 kts 111°
2026-05-01 11:37 53.20595 -0.14471 30802 ft 448 kts 111°
2026-05-01 11:37 53.19647 -0.09557 31289 ft 447 kts 111°
2026-05-01 11:38 53.18692 -0.04618 31798 ft 445 kts 111°
2026-05-01 11:38 53.17755 0.00215 32288 ft 444 kts 111°
2026-05-01 11:38 53.16805 0.05107 32781 ft 443 kts 111°
2026-05-01 11:38 53.15854 0.09984 33269 ft 442 kts 111°
2026-05-01 11:39 53.14905 0.14846 33767 ft 440 kts 111°
2026-05-01 11:39 53.13957 0.19686 34245 ft 439 kts 111°
2026-05-01 11:39 53.13012 0.24500 34623 ft 439 kts 111°
2026-05-01 11:39 53.12065 0.29312 34979 ft 439 kts 111°
2026-05-01 11:40 53.11127 0.34068 35323 ft 439 kts 111°
2026-05-01 11:40 53.10171 0.38898 35678 ft 439 kts 111°
2026-05-01 11:40 53.09215 0.43723 36005 ft 439 kts 111°
2026-05-01 11:40 53.08257 0.48541 36334 ft 439 kts 111°
2026-05-01 11:41 53.07297 0.53362 36657 ft 439 kts 111°
2026-05-01 11:41 53.06333 0.58187 36967 ft 439 kts 111°
2026-05-01 11:41 53.05378 0.62955 37273 ft 439 kts 111°
2026-05-01 11:41 53.04398 0.67838 37579 ft 439 kts 111°
2026-05-01 11:42 53.03443 0.72587 37880 ft 439 kts 111°
2026-05-01 11:42 53.02471 0.77402 38177 ft 439 kts 111°
2026-05-01 11:42 53.01499 0.82208 38454 ft 439 kts 111°
2026-05-01 11:42 53.00525 0.87015 38737 ft 439 kts 111°
2026-05-01 11:43 52.99566 0.91739 38968 ft 438 kts 111°
2026-05-01 11:43 52.98587 0.96551 39149 ft 439 kts 111°
2026-05-01 11:43 52.97684 1.01398 39194 ft 442 kts 105°
2026-05-01 11:44 52.96034 1.16435 39220 ft 441 kts 104°
2026-05-01 11:44 52.94838 1.26349 39214 ft 441 kts 103°
2026-05-01 11:45 52.93663 1.36337 39214 ft 441 kts 103°
2026-05-01 11:45 52.92484 1.46324 39216 ft 441 kts 103°
2026-05-01 11:46 52.91299 1.56299 39221 ft 441 kts 103°
2026-05-01 11:46 52.90104 1.66277 39225 ft 441 kts 104°
2026-05-01 11:47 52.88901 1.76250 39229 ft 441 kts 104°
2026-05-01 11:47 52.87691 1.86211 39235 ft 441 kts 104°
2026-05-01 11:48 52.86479 1.96105 39237 ft 441 kts 104°
2026-05-01 11:48 52.85251 2.06056 39241 ft 441 kts 104°
2026-05-01 11:49 52.84016 2.15996 39247 ft 441 kts 104°
2026-05-01 11:49 52.82773 2.25930 39249 ft 441 kts 104°
2026-05-01 11:50 52.81529 2.35804 39253 ft 441 kts 104°
2026-05-01 11:50 52.80271 2.45733 39251 ft 441 kts 104°
2026-05-01 11:51 52.78999 2.55657 39250 ft 441 kts 104°
2026-05-01 11:51 52.77721 2.65575 39257 ft 441 kts 104°
2026-05-01 11:52 52.76437 2.75474 39257 ft 441 kts 104°
2026-05-01 11:52 52.75142 2.85385 39255 ft 441 kts 104°
2026-05-01 11:53 52.73840 2.95287 39259 ft 441 kts 104°
2026-05-01 11:53 52.73038 3.05261 39266 ft 444 kts 93°
2026-05-01 11:54 52.72645 3.15427 39260 ft 444 kts 97°
2026-05-01 11:54 52.72135 3.25592 39255 ft 444 kts 96°
2026-05-01 11:55 52.71660 3.35747 39254 ft 444 kts 96°
2026-05-01 11:55 52.71183 3.45924 39258 ft 444 kts 96°
2026-05-01 11:56 52.70697 3.56085 39261 ft 445 kts 96°
2026-05-01 11:56 52.70207 3.66184 39262 ft 445 kts 96°
2026-05-01 11:57 52.69703 3.76362 39263 ft 445 kts 96°
2026-05-01 11:57 52.69191 3.86526 39266 ft 445 kts 96°
2026-05-01 11:58 52.68669 3.96718 39266 ft 446 kts 96°
2026-05-01 11:59 52.67871 4.11991 39268 ft 446 kts 96°
2026-05-01 11:59 52.67327 4.22182 39271 ft 446 kts 96°
2026-05-01 12:00 52.66498 4.37398 39267 ft 447 kts 97°
2026-05-01 12:01 52.65645 4.52688 39271 ft 447 kts 97°
2026-05-01 12:01 52.65065 4.62901 39279 ft 448 kts 97°
2026-05-01 12:02 52.64475 4.73110 39277 ft 448 kts 97°
2026-05-01 12:02 52.63875 4.83354 39278 ft 449 kts 97°
2026-05-01 12:03 52.63267 4.93577 39282 ft 449 kts 97°
2026-05-01 12:03 52.62652 5.03765 39281 ft 450 kts 97°
2026-05-01 12:04 52.62022 5.14055 39287 ft 450 kts 97°
2026-05-01 12:04 52.61385 5.24308 39291 ft 451 kts 97°
2026-05-01 12:05 52.60737 5.34585 39291 ft 451 kts 97°
2026-05-01 12:05 52.59753 5.49936 39294 ft 452 kts 97°
2026-05-01 12:06 52.59082 5.60219 39298 ft 452 kts 97°
2026-05-01 12:06 52.58402 5.70503 39295 ft 452 kts 97°
2026-05-01 12:07 52.57712 5.80796 39296 ft 452 kts 97°
2026-05-01 12:07 52.57013 5.91092 39302 ft 453 kts 97°
2026-05-01 12:08 52.56310 6.01313 39297 ft 453 kts 97°
2026-05-01 12:08 52.55593 6.11609 39303 ft 453 kts 97°
2026-05-01 12:09 52.54865 6.21923 39305 ft 453 kts 97°
2026-05-01 12:09 52.54130 6.32211 39304 ft 453 kts 97°
2026-05-01 12:10 52.53011 6.47634 39308 ft 454 kts 97°
2026-05-01 12:11 52.51878 6.62962 39307 ft 454 kts 97°
2026-05-01 12:11 52.51104 6.73278 39307 ft 454 kts 97°
2026-05-01 12:12 52.50323 6.83567 39308 ft 454 kts 97°
2026-05-01 12:12 52.49533 6.93859 39310 ft 454 kts 97°
2026-05-01 12:13 52.48734 7.04146 39318 ft 454 kts 97°
2026-05-01 12:13 52.47931 7.14361 39322 ft 454 kts 97°
2026-05-01 12:14 52.47114 7.24637 39326 ft 455 kts 97°
2026-05-01 12:14 52.46288 7.34916 39330 ft 454 kts 97°
2026-05-01 12:15 52.45453 7.45192 39328 ft 454 kts 97°
2026-05-01 12:15 52.44610 7.55458 39331 ft 455 kts 97°
2026-05-01 12:16 52.43756 7.65740 39336 ft 455 kts 97°
2026-05-01 12:16 52.42897 7.75970 39340 ft 455 kts 97°
2026-05-01 12:17 52.42026 7.86237 39344 ft 455 kts 97°
2026-05-01 12:17 52.41145 7.96511 39347 ft 455 kts 97°
2026-05-01 12:18 52.40262 8.06695 39348 ft 455 kts 97°
2026-05-01 12:18 52.39364 8.16949 39357 ft 455 kts 97°
2026-05-01 12:19 52.38458 8.27201 39349 ft 455 kts 97°
2026-05-01 12:19 52.37542 8.37449 39356 ft 455 kts 97°
2026-05-01 12:20 52.36618 8.47692 39363 ft 455 kts 98°
2026-05-01 12:20 52.35686 8.57915 39366 ft 455 kts 98°
2026-05-01 12:21 52.34744 8.68144 39368 ft 455 kts 98°
2026-05-01 12:21 52.33806 8.78238 39369 ft 455 kts 98°
2026-05-01 12:22 52.33002 8.86808 39372 ft 455 kts 98°
2026-05-01 12:22 52.32037 8.97017 39375 ft 455 kts 98°
2026-05-01 12:23 52.31067 9.07164 39375 ft 454 kts 98°
2026-05-01 12:23 52.30083 9.17369 39375 ft 454 kts 98°
2026-05-01 12:24 52.29092 9.27556 39368 ft 454 kts 98°
2026-05-01 12:24 52.28090 9.37758 39374 ft 454 kts 98°
2026-05-01 12:25 52.26577 9.52982 39374 ft 454 kts 98°
2026-05-01 12:26 52.25554 9.63161 39376 ft 454 kts 98°
2026-05-01 12:26 52.24007 9.78393 39376 ft 453 kts 99°
2026-05-01 12:27 52.22441 9.93605 39379 ft 453 kts 99°
2026-05-01 12:28 52.20863 10.08727 39379 ft 452 kts 99°
2026-05-01 12:29 52.19265 10.23901 39391 ft 452 kts 99°
2026-05-01 12:29 52.17651 10.39044 39395 ft 452 kts 99°
2026-05-01 12:30 52.16020 10.54159 39397 ft 452 kts 99°
2026-05-01 12:31 52.14921 10.64243 39398 ft 451 kts 99°
2026-05-01 12:31 52.13817 10.74293 39391 ft 451 kts 99°
2026-05-01 12:32 52.12654 10.84272 39392 ft 451 kts 102°
2026-05-01 12:32 52.10598 10.99206 39391 ft 450 kts 101°
2026-05-01 12:33 52.09259 11.09155 39393 ft 450 kts 101°
2026-05-01 12:33 52.07914 11.19098 39394 ft 450 kts 101°
2026-05-01 12:34 52.06561 11.29039 39404 ft 450 kts 101°
2026-05-01 12:34 52.05202 11.38900 39400 ft 450 kts 101°
2026-05-01 12:35 52.03819 11.48829 39397 ft 450 kts 101°
2026-05-01 12:35 52.02429 11.58750 39398 ft 450 kts 101°
2026-05-01 12:36 52.01029 11.68675 39403 ft 451 kts 101°
2026-05-01 12:36 51.99615 11.78579 39398 ft 451 kts 103°
2026-05-01 12:37 51.97914 11.88388 39402 ft 451 kts 104°
2026-05-01 12:37 51.96228 11.98178 39396 ft 451 kts 104°
2026-05-01 12:38 51.94542 12.07975 39396 ft 451 kts 104°
2026-05-01 12:38 51.92854 12.17730 39397 ft 451 kts 104°
2026-05-01 12:39 51.91150 12.27530 39399 ft 451 kts 104°
2026-05-01 12:39 51.89438 12.37318 39399 ft 451 kts 104°
2026-05-01 12:40 51.87725 12.47057 39396 ft 451 kts 104°
2026-05-01 12:40 51.86003 12.56800 39242 ft 451 kts 104°
2026-05-01 12:41 51.85168 12.61499 38892 ft 449 kts 104°
2026-05-01 12:41 51.84303 12.66358 38494 ft 448 kts 104°
2026-05-01 12:41 51.83439 12.71201 38096 ft 448 kts 104°
2026-05-01 12:41 51.82572 12.76045 37720 ft 448 kts 104°
2026-05-01 12:42 51.81700 12.80903 37405 ft 448 kts 104°
2026-05-01 12:42 51.80831 12.85733 37379 ft 448 kts 104°
2026-05-01 12:42 51.79075 12.95455 37401 ft 451 kts 104°
2026-05-01 12:43 51.77315 13.05147 37404 ft 450 kts 104°
2026-05-01 12:43 51.75557 13.14777 37401 ft 450 kts 104°
2026-05-01 12:44 51.73778 13.24470 37400 ft 450 kts 104°
2026-05-01 12:45 51.70196 13.43833 37399 ft 450 kts 104°
2026-05-01 12:45 51.68403 13.53451 37395 ft 450 kts 104°
2026-05-01 12:46 51.66605 13.63049 37395 ft 449 kts 104°
2026-05-01 12:46 51.64785 13.72706 37391 ft 449 kts 104°
2026-05-01 12:47 51.62963 13.82330 37393 ft 450 kts 104°
2026-05-01 12:47 51.61131 13.91958 37392 ft 450 kts 104°
2026-05-01 12:48 51.59292 14.01572 37392 ft 450 kts 104°
2026-05-01 12:48 51.57442 14.11192 37388 ft 450 kts 104°
2026-05-01 12:49 51.55588 14.20789 37384 ft 450 kts 104°
2026-05-01 12:49 51.53726 14.30380 37385 ft 450 kts 104°
2026-05-01 12:50 51.51864 14.39919 37390 ft 450 kts 104°
2026-05-01 12:50 51.49985 14.49499 37388 ft 450 kts 104°
2026-05-01 12:51 51.48121 14.58954 37384 ft 450 kts 104°
2026-05-01 12:52 51.45273 14.73326 37381 ft 451 kts 104°
2026-05-01 12:52 51.42422 14.87627 37376 ft 451 kts 104°
2026-05-01 12:53 51.39223 15.01771 37383 ft 453 kts 110°
2026-05-01 12:54 51.36758 15.11053 37376 ft 453 kts 109°
2026-05-01 12:54 51.33146 15.25010 37368 ft 452 kts 109°
2026-05-01 12:55 51.29548 15.38887 37367 ft 452 kts 109°
2026-05-01 12:56 51.27129 15.48168 37366 ft 452 kts 109°
2026-05-01 12:56 51.24704 15.57434 37364 ft 451 kts 109°
2026-05-01 12:57 51.22274 15.66681 37360 ft 451 kts 109°
2026-05-01 12:57 51.18634 15.80469 37361 ft 451 kts 109°
2026-05-01 12:58 51.16221 15.89690 37361 ft 450 kts 108°
2026-05-01 12:59 51.12651 16.03542 37362 ft 450 kts 108°
2026-05-01 12:59 51.09065 16.17347 37356 ft 450 kts 108°
2026-05-01 13:00 51.05482 16.31060 37356 ft 449 kts 108°
2026-05-01 13:01 51.01870 16.44798 37344 ft 449 kts 108°
2026-05-01 13:02 50.98224 16.58594 37349 ft 454 kts 108°
2026-05-01 13:07 50.72147 17.54558 36184 ft 447 kts 108°
2026-05-01 13:07 50.70907 17.59087 35352 ft 450 kts 108°
2026-05-01 13:07 50.69660 17.63621 34661 ft 450 kts 108°
2026-05-01 13:08 50.68411 17.68155 33850 ft 450 kts 108°
2026-05-01 13:08 50.67159 17.72685 32983 ft 451 kts 108°
2026-05-01 13:08 50.65921 17.77161 32200 ft 450 kts 108°
2026-05-01 13:08 50.65114 17.80071 31689 ft 449 kts 108°
2026-05-01 13:09 50.63864 17.84575 30854 ft 449 kts 108°
2026-05-01 13:09 50.62612 17.89079 29909 ft 449 kts 108°
2026-05-01 13:09 50.61351 17.93594 28935 ft 449 kts 109°
2026-05-01 13:09 50.59998 17.98043 27904 ft 451 kts 110°
2026-05-01 13:10 50.58852 18.02573 27318 ft 435 kts 99°
2026-05-01 13:10 50.58524 18.07148 26950 ft 413 kts 85°
2026-05-01 13:10 50.58551 18.11627 26560 ft 404 kts 86°
2026-05-01 13:10 50.58383 18.16000 26147 ft 398 kts 89°
2026-05-01 13:11 50.58192 18.20209 25733 ft 390 kts 89°
2026-05-01 13:11 50.58028 18.24490 25310 ft 383 kts 88°
2026-05-01 13:11 50.57885 18.28595 24916 ft 377 kts 88°
2026-05-01 13:11 50.57752 18.32659 24561 ft 371 kts 88°
2026-05-01 13:12 50.57625 18.36687 24074 ft 369 kts 88°
2026-05-01 13:12 50.57498 18.40700 23582 ft 365 kts 88°
2026-05-01 13:12 50.57363 18.44688 23028 ft 363 kts 88°
2026-05-01 13:12 50.57218 18.48642 22517 ft 360 kts 88°
2026-05-01 13:13 50.57074 18.52561 22015 ft 358 kts 88°
2026-05-01 13:13 50.56930 18.56459 21524 ft 356 kts 88°
2026-05-01 13:13 50.56786 18.60329 21034 ft 353 kts 88°
2026-05-01 13:13 50.56641 18.64175 20568 ft 351 kts 88°
2026-05-01 13:14 50.56496 18.68004 20097 ft 349 kts 88°
2026-05-01 13:14 50.56280 18.71764 19634 ft 351 kts 95°
2026-05-01 13:14 50.55476 18.75433 19201 ft 357 kts 107°
2026-05-01 13:14 50.54553 18.79043 18717 ft 354 kts 104°
2026-05-01 13:15 50.53701 18.82663 18243 ft 352 kts 104°
2026-05-01 13:15 50.52844 18.86237 17784 ft 350 kts 104°
2026-05-01 13:15 50.51979 18.89806 17300 ft 348 kts 104°
2026-05-01 13:15 50.51119 18.93331 16843 ft 346 kts 104°
2026-05-01 13:16 50.50258 18.96848 16391 ft 344 kts 105°
2026-05-01 13:16 50.49399 19.00344 15955 ft 342 kts 105°
2026-05-01 13:16 50.48546 19.03815 15524 ft 340 kts 105°
2026-05-01 13:17 50.46003 19.14122 14230 ft 335 kts 105°
2026-05-01 13:17 50.45164 19.17513 13763 ft 333 kts 105°
2026-05-01 13:18 50.43498 19.24226 12879 ft 330 kts 105°
2026-05-01 13:18 50.42666 19.27571 12419 ft 329 kts 105°
2026-05-01 13:18 50.41835 19.30913 11988 ft 328 kts 105°
2026-05-01 13:18 50.41009 19.34223 11555 ft 327 kts 106°
2026-05-01 13:19 50.40182 19.37537 11132 ft 325 kts 106°
2026-05-01 13:19 50.39363 19.40813 10734 ft 324 kts 106°
2026-05-01 13:19 50.37720 19.47363 9916 ft 321 kts 107°
2026-05-01 13:20 50.36903 19.50620 9446 ft 321 kts 107°
2026-05-01 13:20 50.36087 19.53864 9021 ft 319 kts 107°
2026-05-01 13:20 50.35289 19.57032 8625 ft 310 kts 107°
2026-05-01 13:21 50.33753 19.63115 7761 ft 290 kts 108°
2026-05-01 13:21 50.33023 19.66003 7435 ft 280 kts 108°
2026-05-01 13:21 50.32321 19.68781 7131 ft 269 kts 108°
2026-05-01 13:21 50.31642 19.71458 6888 ft 262 kts 108°
2026-05-01 13:22 50.30975 19.74082 6636 ft 261 kts 108°
2026-05-01 13:22 50.30304 19.76729 6381 ft 262 kts 109°
2026-05-01 13:22 50.29628 19.79391 6182 ft 264 kts 108°
2026-05-01 13:22 50.28947 19.82064 6007 ft 264 kts 108°
2026-05-01 13:23 50.28265 19.84738 5821 ft 264 kts 109°
2026-05-01 13:23 50.27592 19.87381 5651 ft 265 kts 109°
2026-05-01 13:23 50.26904 19.90070 5425 ft 266 kts 109°
2026-05-01 13:23 50.26219 19.92743 5269 ft 265 kts 109°
2026-05-01 13:24 50.25532 19.95420 5076 ft 265 kts 109°
2026-05-01 13:24 50.24663 19.97963 4783 ft 269 kts 129°
2026-05-01 13:24 50.23123 19.99630 4433 ft 273 kts 156°
2026-05-01 13:25 50.19799 20.02260 3988 ft 260 kts 150°
2026-05-01 13:25 50.18258 20.03592 3894 ft 245 kts 150°
2026-05-01 13:25 50.16802 20.04854 3836 ft 232 kts 150°
2026-05-01 13:25 50.15438 20.06043 3808 ft 220 kts 151°
2026-05-01 13:26 50.13982 20.06650 3671 ft 217 kts 181°
2026-05-01 13:26 50.12572 20.06029 3605 ft 214 kts 214°
2026-05-01 13:26 50.11578 20.04390 3574 ft 205 kts 244°
2026-05-01 13:26 50.11072 20.02398 3450 ft 193 kts 259°
2026-05-01 13:27 50.10785 20.00399 3298 ft 187 kts 262°
2026-05-01 13:27 50.10533 19.98421 3098 ft 186 kts 262°
2026-05-01 13:27 50.09994 19.94464 2639 ft 187 kts 261°
2026-05-01 13:28 50.09489 19.90916 2250 ft 151 kts 262°
2026-05-01 13:28 50.09278 19.89374 2045 ft 142 kts 262°
2026-05-01 13:29 50.08869 19.86366 1648 ft 142 kts 261°
2026-05-01 13:29 50.08451 19.83370 1254 ft 142 kts 260°
2026-05-01 13:30 50.07714 19.78035 790 ft 51 kts 258°
2026-05-01 13:31 50.07570 19.76995 797 ft 33 kts 257°
2026-05-01 13:31 50.07309 19.76946 792 ft 14 kts 107°
2026-05-01 13:32 50.07349 19.77271 791 ft 18 kts 78°
2026-05-01 13:33 50.07448 19.77987 791 ft 27 kts 76°
2026-05-01 13:33 50.07532 19.78574 791 ft 30 kts 78°
2026-05-01 13:34 50.07619 19.79197 791 ft 29 kts 77°
2026-05-01 13:34 50.07699 19.79771 791 ft 18 kts 78°
2026-05-01 13:35 50.07592 19.79906 792 ft 8 kts 168°
2026-05-01 13:35 50.07549 19.79920 791 ft 0 kts 168°
2026-05-01 13:35 50.07529 19.79928 792 ft 4 kts 156°
2026-05-01 13:36 50.07511 19.79978 792 ft 7 kts 90°
2026-05-01 13:36 50.07523 19.80070 792 ft 10 kts 78°
2026-05-01 13:36 50.07526 19.80204 792 ft 1 kts 173°
2026-05-01 13:37 50.07507 19.80208 792 ft 4 kts 169°
2026-05-01 13:37 50.07494 19.80212 792 ft 0 kts 167°